Location: Faarup
(56.2091°N, 10.0701°E)
Time: 01:38:04
(UTC+00:00)

Daily predictions for brighter satellites

Satellite Brightness Start Highest point End
(mag) Time Altitude Azimuth Time Altitude Azimuth Time Altitude Azimuth
Cosmos 1536 Rocket 4.0 00:04:23 10° N 00:08:41 57° ENE 00:11:18 22° SE
Cosmos 2219 Rocket 2.7 00:03:19 10° NW 00:08:41 44° WSW 00:11:13 28° SSW
Cosmos 2082 Rocket 4.4 00:05:34 10° WNW 00:10:08 24° NNW 00:14:42 10° NNE
Cosmos 1437 2.9 00:07:36 10° N 00:10:35 58° ENE 00:11:26 39° SE
Cosmos 1464 Rocket 4.0 00:08:47 26° S 00:12:32 90° WNW 00:18:47 10° NNE
Lacrosse 4 Rocket 1.4 00:13:01 34° SSW 00:14:48 72° SE 00:18:59 10° NE
Cosmos 1782 Rocket 3.5 00:12:54 33° SSW 00:14:49 77° WNW 00:19:12 10° N
Cosmos 2322 Rocket 4.4 00:14:51 10° W 00:15:40 10° W 00:16:29 10° W
FALCON 9 DEB 3.3 00:15:50 39° SW 00:16:43 50° S 00:20:06 10° ESE
Landsat 4 3.9 00:14:48 10° NNE 00:18:36 66° WNW 00:20:07 33° SW
IRAS Rocket 4.5 00:14:44 15° SSE 00:19:22 71° ENE 00:24:58 10° NNW
Cosmos 1354 Rocket 4.1 00:16:38 28° S 00:19:26 67° ESE 00:24:45 10° NNE
SL-16 R/B 2.9 00:14:52 10° NNW 00:20:29 54° NE 00:26:04 10° SE
SL-4 R/B 3.0 00:22:19 22° SE 00:22:19 22° SE 00:23:51 10° ESE
Cosmos 968 Rocket 3.5 00:19:13 26° SW 00:22:06 81° WNW 00:27:17 10° NNE
Cosmos 1908 Rocket 4.4 00:21:10 24° SW 00:23:24 41° WNW 00:27:34 10° N
COSMOS 2428 3.4 00:21:30 10° NW 00:26:44 37° WSW 00:29:12 25° SSW
Nadezhda 4 Rocket 4.1 00:25:11 10° NNW 00:31:26 64° W 00:35:18 24° SSW
Cosmos 2360 Rocket 4.1 00:28:50 10° WNW 00:31:40 14° W 00:33:24 12° WSW
Cosmos 1680 Rocket 4.5 00:28:55 10° NNW 00:34:01 48° NE 00:39:04 10° SE
SL-16 R/B 2.6 00:28:37 14° SSE 00:34:03 83° ENE 00:40:21 10° NNW
CZ-2D R/B 3.1 00:29:01 10° NNE 00:34:10 40° E 00:38:05 16° SSE
BREEZE-M TANK 4.4 00:36:08 14° SE 00:36:08 14° SE 00:37:11 10° SE
CENTAUR R/B 3.3 00:29:21 10° WSW 00:35:52 62° NNW 00:43:38 10° ENE
Cosmos 1607 4.1 00:30:09 10° NW 00:36:37 84° NE 00:43:07 10° SE
USA 267 3.2 00:32:07 10° ESE 00:38:40 84° SSW 00:45:16 10° WNW
Cosmos 2034 Rocket 4.0 00:35:41 24° SSW 00:39:40 82° W 00:46:04 10° N
GEOS 3 Rocket 4.1 00:34:30 10° NE 00:39:46 49° SE 00:42:46 24° SSW
KORONAS-FOTON 4.2 00:37:26 10° N 00:41:12 59° ENE 00:43:45 19° SSE
ADEOS II 4.0 00:38:20 10° NE 00:42:27 22° E 00:46:31 10° SE
Cosmos 1092 Rocket 4.0 00:37:18 10° NNW 00:43:36 77° W 00:48:01 20° S
Cosmos 1975 Rocket 4.3 00:39:58 10° NNW 00:43:50 28° W 00:45:36 22° SW
Okean 2 Rocket 3.1 00:41:46 28° S 00:44:07 89° ESE 00:48:40 10° NNE
Meteor 2-9 Rocket 4.5 00:41:29 23° SW 00:44:55 60° WNW 00:50:36 10° N
PSLV R/B 4.3 00:41:15 10° N 00:45:41 49° WNW 00:48:26 22° SW
Cosmos 1980 3.8 00:40:26 10° NW 00:45:59 55° WSW 00:49:51 20° S
Cosmos 2333 Rocket 3.5 00:41:38 10° NW 00:46:10 24° WSW 00:48:11 20° SW
Helios 1B rocket 2.7 00:42:41 10° N 00:46:45 59° WNW 00:48:49 27° SW
Cosmos 1975 3.9 00:45:31 22° WSW 00:47:30 35° WNW 00:51:14 10° N
Cosmos 2297 Rocket 3.1 00:45:36 18° SSE 00:49:10 38° ESE 00:54:21 10° NE
Cosmos 2219 3.9 00:45:50 20° S 00:49:19 42° ESE 00:54:35 10° NE
COSMOS 2487 4.2 00:48:08 14° W 00:50:17 25° NW 00:53:13 10° N
Meteor 1-29 3.0 00:47:18 10° NNE 00:50:46 72° WNW 00:52:12 32° SSW
Sich 1 Rocket 3.9 00:48:43 26° SW 00:51:01 56° WNW 00:55:22 10° N
Cosmos 1777 Rocket 4.5 00:49:00 22° S 00:52:15 53° ESE 00:57:25 10° NE
Cosmos 44 Rocket 4.3 00:49:22 10° WNW 00:53:37 29° WSW 00:55:08 24° SSW
UNK 3.7 00:52:23 20° S 00:55:37 79° WSW 01:00:20 10° NNW
Cosmos 2237 Rocket 2.4 00:50:32 10° NW 00:56:00 50° WSW 00:59:51 19° S
Cosmos 1300 Rocket 3.5 00:57:53 26° SSW 01:00:13 71° WNW 01:04:34 10° N
Cosmos 1503 Rocket 4.3 00:56:39 21° SW 01:00:18 64° WNW 01:05:40 10° NNE
Cosmos 1626 3.2 00:57:10 10° N 01:00:45 44° ENE 01:04:20 10° SE
NOSS 3-2 (C) 4.4 00:55:14 10° W 01:01:22 53° NNW 01:08:33 10° ENE
Cosmos 2084 Rocket 4.3 00:57:48 10° W 01:01:57 48° NNW 01:06:14 10° NE
DELTA 2 DEB (DPAF) 4.3 01:00:27 24° S 01:02:57 54° WSW 01:07:20 10° NNW
Okean 1 Rocket 3.6 01:01:02 19° SSE 01:04:00 53° E 01:08:16 10° NNE
Cosmos 923 Rocket 4.1 00:58:50 10° NNW 01:04:14 87° ENE 01:09:34 10° SSE
CZ-4C R/B 3.0 01:04:19 27° S 01:06:05 65° WSW 01:09:38 10° NNW
Cosmos 2098 Rocket 4.4 01:06:22 10° N 01:10:34 45° ENE 01:15:51 10° SE
Cosmos 158 Rocket 4.2 01:07:11 10° NNW 01:12:34 81° ENE 01:17:58 10° SSE
SL-08 R/B 4.4 01:08:01 10° SE 01:12:45 47° ENE 01:17:29 10° N
IKONOS-2 4.5 01:10:35 19° S 01:13:35 70° WSW 01:17:50 10° NNW
Cosmos 2151 Rocket 3.7 01:12:29 23° SSW 01:15:09 67° WNW 01:19:34 10° N
Cosmos 1707 4.2 01:12:27 10° NW 01:15:39 24° W 01:17:05 19° WSW
Meteor 1-12 Rocket 4.5 01:11:28 20° SSW 01:15:40 68° WNW 01:21:42 10° NNE
Timation 2 Rocket 3.9 01:14:34 20° SSW 01:19:03 82° SE 01:25:06 10° NE
SL-14 R/B 3.5 01:20:29 10° N 01:24:28 71° ENE 01:28:21 10° SSE
DNEPR-1 R/B 4.4 01:19:43 10° NW 01:25:33 45° SW 01:30:19 10° SSE
ERBS 3.0 01:23:39 10° W 01:26:32 29° SW 01:29:26 10° SSE
Cosmos 1805 3.3 01:24:26 19° S 01:27:07 73° E 01:31:02 10° NNE
Cosmos 1943 4.3 01:21:50 10° NNW 01:27:17 47° NE 01:32:42 10° ESE
Meteor 1-15 Rocket 4.2 01:22:53 17° S 01:27:18 87° ESE 01:32:55 10° NNE
SJ 16-02 2.6 01:25:10 12° SSE 01:28:47 35° ESE 01:32:49 10° NE
Cosmos 1025 Rocket 4.5 01:30:49 10° NW 01:34:09 22° W 01:36:08 16° WSW
Resurs 1-4 Rocket 2.1 01:29:54 10° NNE 01:35:13 81° WNW 01:39:24 17° SSW
Cosmos 1674 3.4 01:34:19 10° NNW 01:37:45 36° W 01:39:47 20° SSW
Cosmos 2227 Rocket 2.4 01:33:34 17° SSW 01:38:01 66° ESE 01:43:40 10° NE
Cosmos 1455 Rocket 4.2 01:34:55 10° SSE 01:39:03 40° E 01:43:13 10° NNE
Cosmos 1892 Rocket 3.6 01:36:47 10° NNW 01:41:18 86° W 01:45:45 10° S
Cosmos 1733 3.2 01:42:54 16° S 01:45:54 82° E 01:49:46 10° NNE
USA 215 4.0 01:40:06 10° ENE 01:46:12 40° SE 01:51:29 14° SSW
Cosmos 724 4.4 01:42:52 10° NW 01:48:52 90° SW 01:54:58 10° SE
ATLAS 3B R/B 3.3 01:42:35 10° W 01:49:04 55° NNW 01:55:43 10° ENE
Cosmos 2279 Rocket 4.0 01:44:46 13° SSW 01:50:20 83° WNW 01:56:35 10° N
COBE Rocket 3.9 01:47:33 12° S 01:51:51 55° W 01:56:26 10° NNW
FALCON 9 DEB 3.9 01:50:14 10° W 01:53:23 32° SSW 01:56:32 10° SE
Lacrosse 4 Rocket 3.0 01:50:03 10° W 01:53:50 30° NNW 01:57:34 10° NNE
Cosmos 1634 Rocket 4.3 01:50:26 15° SW 01:55:38 55° WNW 02:01:46 10° N
Cosmos 2112 Rocket 4.1 01:53:16 10° NNW 01:58:27 58° WSW 02:03:32 10° S
Cosmos 2082 4.1 01:53:30 12° SSW 01:58:36 57° ESE 02:04:07 10° NE
Cosmos 1340 Rocket 4.0 01:55:15 10° SSE 01:58:58 38° E 02:02:40 10° NNE
SL-4 R/B 2.9 01:58:02 15° WSW 01:59:36 19° SSW 02:02:07 10° SSE
Meteor 1-24 Rocket 3.8 01:57:44 10° NNW 02:03:08 54° W 02:08:22 10° S
CBERS-1 4.1 01:58:55 10° NNE 02:04:05 87° ESE 02:09:09 10° SSW
ERS-2 3.8 02:01:03 10° SE 02:04:24 36° ENE 02:07:48 10° N
SL-16 R/B 2.6 01:59:13 10° NW 02:04:33 41° WSW 02:09:50 10° S
Cosmos 1953 4.3 02:02:03 10° SSE 02:05:28 27° E 02:08:55 10° NNE
Meteor 2-5 Rocket 4.2 02:01:26 10° NNW 02:06:45 42° W 02:11:56 10° SSW
Cosmos 1726 3.9 02:06:16 10° SSE 02:09:29 29° E 02:12:43 10° NNE
ARIANE 5 R/B 3.2 02:06:21 10° NNE 02:11:30 56° ESE 02:16:38 10° S
NPP 4.0 02:08:07 10° N 02:13:23 54° WNW 02:18:22 11° SW
IDEFIX/ARIANE 42P 3.7 02:09:21 10° NNE 02:14:19 42° E 02:19:15 10° SSE
CZ-2D R/B 2.7 02:09:07 10° N 02:14:21 48° WNW 02:19:24 11° SW
Cosmos 1680 Rocket 4.0 02:11:15 10° NW 02:16:06 39° WSW 02:20:55 10° S
H-2A R/B 2.6 02:12:16 10° SSE 02:16:19 59° ENE 02:20:22 10° N
Cosmos 1898 Rocket 4.0 02:12:12 10° S 02:17:19 57° ESE 02:22:27 10° NE
GEOS 3 Rocket 4.1 02:12:36 10° NE 02:17:56 63° NNW 02:23:16 10° WSW
SL-16 R/B 3.7 02:13:42 12° SW 02:18:23 25° W 02:23:30 10° NW
AQUA 4.3 02:15:20 10° N 02:19:57 50° WNW 02:24:26 11° SW
USA 267 3.5 02:15:56 10° SE 02:22:11 46° SW 02:28:28 10° WNW
ADEOS II 2.1 02:17:27 10° NNE 02:22:45 78° WNW 02:28:00 10° SSW
NOSS 3-1 (C) 4.4 02:18:01 10° S 02:23:12 39° ESE 02:29:12 10° ENE
Cosmos 1544 Rocket 3.8 02:21:00 10° S 02:25:29 75° E 02:29:58 10° NNE
IRS-1D 3.6 02:21:37 10° NNE 02:26:36 64° WNW 02:31:38 10° SSW
CENTAUR R/B 3.9 02:20:54 10° WNW 02:27:46 50° N 02:35:45 10° ENE
CZ-4C R/B 3.2 02:25:42 10° SSE 02:28:55 67° ENE 02:32:15 10° N
Cosmos 990 Rocket 4.2 02:23:48 10° SSW 02:28:58 72° ESE 02:34:09 10° NNE
Okean 1-7 Rocket 4.1 02:25:37 10° NNW 02:29:47 42° W 02:33:56 10° SSW
Cosmos 1766 4.2 02:26:32 11° SW 02:29:58 34° WNW 02:33:34 10° N
Cosmos 2263 Rocket 3.7 02:26:41 10° SSE 02:31:32 32° ESE 02:36:25 10° NE
Cosmos 1703 4.3 02:28:03 10° N 02:31:57 49° ENE 02:35:49 10° SSE
IRS-1C 4.2 02:26:58 10° NNE 02:32:21 87° WNW 02:37:42 10° SSW
CZ-4B R/B 4.0 02:29:54 10° ESE 02:32:36 24° ENE 02:35:16 10° N
Meteor 1-22 Rocket 4.2 02:27:26 10° SSW 02:32:40 62° WNW 02:37:58 10° N
Cosmos 2297 Rocket 2.6 02:27:29 10° SW 02:33:04 58° NW 02:38:41 10° NNE
Cosmos 2219 3.7 02:27:56 10° WSW 02:33:26 52° NW 02:38:57 10° NNE
Cosmos 1626 3.5 02:32:53 10° NW 02:35:47 22° W 02:38:41 10° SW
Cosmos 2266 Rocket 4.3 02:30:21 10° NNW 02:36:30 50° W 02:42:31 10° SSW
Uosat 12 SS-18 rocket 4.3 02:33:51 10° WSW 02:38:39 71° NW 02:43:00 10° NE
Cosmos 2237 Rocket 4.1 02:37:34 10° W 02:38:45 11° W 02:39:56 10° WSW
Cosmos 1602 Rocket 3.5 02:34:52 10° NNW 02:39:17 82° W 02:43:38 10° S
CZ-4B R/B 3.9 02:35:15 10° N 02:39:51 46° WNW 02:44:23 10° SW
Meteor 1-28 Rocket 3.9 02:37:40 10° SSW 02:41:12 37° W 02:44:47 10° NNW
Okean 1 Rocket 4.4 02:38:36 10° WSW 02:42:13 25° WNW 02:45:52 10° N
CZ-2C R/B 4.4 02:38:36 10° NE 02:42:27 26° E 02:46:17 10° SSE
Cosmos 1603 3.8 02:38:33 10° NW 02:44:15 63° WSW 02:49:53 10° SSE
Meteor 2-21 Rocket 4.5 02:39:09 10° NNW 02:45:14 83° W 02:51:18 10° S
Cosmos 1470 2.9 02:42:27 10° SSW 02:46:23 62° WNW 02:50:22 10° N
SL-08 R/B 4.1 02:46:09 10° SSW 02:50:41 35° W 02:55:16 10° NNW
